Location: Newark
(35.2161°N, 26.1013°E)
Time: 06:20:33
(UTC+00:00)

BEESAT 2 - Pass Details

Date: 25 January 2020
Orbit: 493 x 534 km, 64.9° (Epoch: 27 February)

Event Time Altitude Azimuth Distance (km) Brightness Sun altitude
Exits shadow 04:16:01 14° 325° (NW) 1,553 ? -13.2°
Maximum altitude 04:19:25 69° 243° (WSW) 570 ? -12.5°
Drops below altitude 10° 04:23:21 10° 160° (SSE) 1,763 ? -11.7°
Sets 04:25:31 0° 158° (SSE) 2,643 ? -11.3°
